This is the latest recevied weather packets stored in our database for station/object KO4LCK. If no packets are shown the sender has not sent any weather packets the latest 10 day(s).
| Time | Temp. | Humidity | Pressure | Rain* | Wind** | Luminosity | Snow |
|---|---|---|---|---|---|---|---|
| 1787864670 | 32.22° C | 55% | 1014.6 hPa | 0 mm | - | 228 W/m² | - |
| 1787864369 | 32.78° C | 56% | 1014.6 hPa | 0 mm | - | 272 W/m² | - |
| 1787864064 | 32.78° C | 55% | 1014.5 hPa | 0 mm | - | 290 W/m² | - |
| 1787863762 | 33.33° C | 52% | 1014.5 hPa | 0 mm | - | 274 W/m² | - |
| 1787863461 | 33.33° C | 53% | 1014.7 hPa | 0 mm | - | 361 W/m² | - |
| 1787863157 | 32.78° C | 52% | 1014.7 hPa | 0 mm | - | 370 W/m² | - |
| 1787862853 | 32.78° C | 54% | 1014.8 hPa | 0 mm | - | 313 W/m² | - |
| 1787862553 | 32.78° C | 56% | 1014.6 hPa | 0 mm | - | 387 W/m² | - |
| 1787862248 | 33.33° C | 53% | 1014.6 hPa | 0 mm | - | 292 W/m² | - |
| 1787861948 | 34.44° C | 50% | 1014.7 hPa | 0 mm | - | 219 W/m² | - |
| 1787861648 | 33.89° C | 53% | 1014.9 hPa | 0 mm | - | 322 W/m² | - |
| 1787861345 | 33.89° C | 51% | 1015 hPa | 0 mm | - | 688 W/m² | - |
| 1787861041 | 33.33° C | 54% | 1015.1 hPa | 0 mm | - | 320 W/m² | - |
| 1787860739 | 33.89° C | 52% | 1015.2 hPa | 0 mm | - | 289 W/m² | - |
| 1787860435 | 33.33° C | 52% | 1015.2 hPa | 0 mm | - | 487 W/m² | - |
| 1787860134 | 33.89° C | 50% | 1015.1 hPa | 0 mm | - | 418 W/m² | - |
| 1787859831 | 32.78° C | 51% | 1015.1 hPa | 0 mm | - | 626 W/m² | - |
| 1787859531 | 32.78° C | 54% | 1015 hPa | 0 mm | - | 342 W/m² | - |
| 1787859225 | 33.89° C | 51% | 1015.4 hPa | 0 mm | - | 210 W/m² | - |
| 1787858922 | 33.89° C | 48% | 1015.5 hPa | 0 mm | - | 519 W/m² | - |
| 1787858617 | 33.89° C | 51% | 1015.6 hPa | 0 mm | - | 330 W/m² | - |
| 1787858317 | 33.33° C | 52% | 1015.6 hPa | 0 mm | - | 623 W/m² | - |
| 1787858007 | 33.33° C | 54% | 1015.5 hPa | 0 mm | - | 668 W/m² | - |
| 1787857703 | 33.33° C | 51% | 1015.8 hPa | 0 mm | - | 519 W/m² | - |
| 1787857399 | 33.89° C | 49% | 1015.7 hPa | 0 mm | - | 416 W/m² | - |
* Rain latest hour (hover to see other rain measurements)
** Current wind speed in m/s (hover to see current wind gust speed)